Torna al catalogo

STARLINK-36292

AttivoComunicazioniVLEO
NORAD 68509·PAYLOAD·🇺🇸 United States

Lanciato Mar 30, 2026 da Cape Canaveral Space Force Station

Loading…

Prossimi Passaggi (prossime 24 ore)

TLE

AggiornatoSource: CelesTrak SupGP

Epoca: Sep 14, 2026, 23:17 UTC

1 68509C 26068B   26257.97062500  .00031259  00000+0  92370-3 0  2571
2 68509  53.1595 325.2383 0001244  83.6496 247.0888 15.34370066    14

Traccia STARLINK-36292 in tempo reale con AllMySat

Download on the App Store